Погода в Дергачах

Россия / Саратовская область     51°14′09″N   48°45′45″E
темп.,
°C
ветер,
м/с
пор.,
м/с
влажн.,
%
обл.,
%
осадки,
мм/ч
давл.,
гПа
погр.,
м
26 февраля, пт
пт2601:00−11ююз71294100 1.1 1018552
04:00−10ю4895100 1.5 1015278
07:00−10ю469696 0.3 1014156
10:00−8ююв239792 0.4 101499
13:00−5ююв1193100 0.1 1014196
16:00−3юв2295100 0.1 1014191
19:00−3ююв5797100 0.4 1011166
22:00+1ююз711100100 1.6 1009315
27 февраля, сб
сб2701:00+2зюз613100100 2.1 1005347
04:00+2з71499100 2.3 1004411
07:00+1з61298100 0.0 1004452
10:00+1з611100100 0.1 1005427
13:00+1зюз611100100 0.0 1004426
16:00+1зюз510100100 0.1 1004428
19:00+1зюз61097100 0.1 1004505
22:000зюз5998100 0.2 1003412
28 февраля, вс
вс2801:000юз61097100 0.3 1002441
04:00−1зюз6119594 0.5 1002394
07:00−7зсз5109293 0.2 1003362
10:00−11зсз699096 0.3 1005397
13:00−11зсз699077 0.0 1007452
16:00−10зсз599189 0.1 1009507
19:00−10сз4995100 0.1 1010351
22:00−11ссз499595 0.1 1013236
1 марта, пн
пн101:00−14сз489546 0.0 1014161
04:00−16ссз469523 0.0 1016116
07:00−17ссз47960 0.0 1018126
10:00−16ссз469339 0.0 1020255
13:00−14ссз469168 0.0 1022325
16:00−14ссз479169 0.0 1022376
19:00−17ссз349427 0.0 102433
22:00−18сз239414 0.0 102520
2 марта, вт
вт201:00−18сз33960 0.0 102526
04:00−19зсз23980 0.0 102520
07:00−19зюз349717 0.0 102432
10:00−16зюз479215 0.0 1023225
13:00−11юз6993100 0.0 1021286
16:00−8юз71392100 0.0 1018477
19:00−6юз81495100 0.6 1015590
22:00−4зюз71395100 1.4 1013537